FWO584 Weather Reports


time (UTC)temp
C
wind
direction
speed
KPH
gust
KPH
rain 1hr
cm
rain 24hr
cm
rain mn
cm
humidity
%
barometer
mb
20260504213405 15 229 1.6 11.3 0.00 0.41 0.41 87 1010.4
20260504210904 15 209 3.2 8.0 0.00 0.41 0.41 86 1010.6
20260504210405 15 179 3.2 9.7 0.00 0.41 0.41 86 1010.6
20260504203904 15 182 6.4 14.5 0.00 0.41 0.41 86 1010.5
20260504203405 15 174 3.2 11.3 0.00 0.41 0.41 86 1010.4
20260504200905 16 179 8.0 16.1 0.00 0.41 0.41 86 1010.1
20260504200404 16 174 9.7 16.1 0.00 0.41 0.41 86 1010.0
20260504193905 16 190 8.0 12.9 0.00 0.41 0.41 86 1009.8
20260504193404 16 192 8.0 16.1 0.00 0.41 0.41 86 1009.8
20260504190904 16 192 8.0 16.1 0.00 0.41 0.41 86 1009.4
20260504190405 16 190 8.0 14.5 0.03 0.41 0.41 86 1009.5
20260504183904 16 202 3.2 4.8 0.05 0.41 0.41 86 1009.0
20260504183405 16 118 0.0 4.8 0.08 0.41 0.41 86 1009.0
20260504180904 16 198 3.2 8.0 0.08 0.41 0.41 86 1009.1
20260504180404 16 275 0.0 8.0 0.08 0.38 0.38 86 1009.1
20260504173905 16 171 8.0 14.5 0.05 0.36 0.36 86 1009.2
20260504173405 16 160 4.8 19.3 0.05 0.33 0.33 86 1009.4
20260504170905 17 173 0.0 1.6 0.15 0.33 0.33 86 1009.4
20260504170406 17 136 3.2 12.9 0.15 0.30 0.30 86 1009.5
20260504160401 17 199 4.8 22.5 0.10 0.13 0.13 85 1010.0
20260504150901 17 186 11.3 24.1 0.03 0.03 0.03 85 1009.8
20260504140901 18 166 11.3 19.3 0.00 0.00 0.00 82 1010.2
20260504140401 18 159 16.1 29.0 0.00 0.00 0.00 81 1010.2
20260504130400 20 144 20.9 40.2 0.00 0.00 0.00 66 1010.1
20260504110401 19 154 19.3 33.8 0.00 0.00 0.00 73 1010.7
20260504080900 21 210 8.0 14.5 0.00 0.00 0.00 65 1010.9
20260504080401 21 194 8.0 20.9 0.00 0.00 0.00 66 1010.9